Year,Month,Day,Hour,Minute,Value (Times are PST for temperature in C)
2021,07,01,00,00,19.40
2021,07,01,00,01,19.40
2021,07,01,00,02,19.40
2021,07,01,00,03,19.40
2021,07,01,00,04,19.40
2021,07,01,00,05,19.40
2021,07,01,00,06,19.40
2021,07,01,00,07,19.40
2021,07,01,00,08,19.40
2021,07,01,00,09,19.40
2021,07,01,00,10,19.40
2021,07,01,00,11,19.40
2021,07,01,00,12,19.40
2021,07,01,00,13,19.40
2021,07,01,00,14,19.40
2021,07,01,00,15,19.40
2021,07,01,00,16,19.40
2021,07,01,00,17,19.40
2021,07,01,00,18,19.40
2021,07,01,00,19,19.40
2021,07,01,00,20,19.40
2021,07,01,00,21,19.40
2021,07,01,00,22,19.40
2021,07,01,00,23,19.40
2021,07,01,00,24,19.40
2021,07,01,00,25,19.40
2021,07,01,00,26,19.40
2021,07,01,00,27,19.40
2021,07,01,00,28,19.40
2021,07,01,00,29,19.40
2021,07,01,00,30,19.40
2021,07,01,00,31,19.40
2021,07,01,00,32,19.30
2021,07,01,00,33,19.30
2021,07,01,00,34,19.30
2021,07,01,00,35,19.30
2021,07,01,00,36,19.30
2021,07,01,00,37,19.30
2021,07,01,00,38,19.30
2021,07,01,00,39,19.30
2021,07,01,00,40,19.30
2021,07,01,00,41,19.30
2021,07,01,00,42,19.30
2021,07,01,00,43,19.30
2021,07,01,00,44,19.30
2021,07,01,00,45,19.30
2021,07,01,00,46,19.30
2021,07,01,00,47,19.30
2021,07,01,00,48,19.30
2021,07,01,00,49,19.30
2021,07,01,00,50,19.30
2021,07,01,00,51,19.20
2021,07,01,00,52,19.20
2021,07,01,00,53,19.20
2021,07,01,00,54,19.20
2021,07,01,00,55,19.20
2021,07,01,00,56,19.20
2021,07,01,00,57,19.20
2021,07,01,00,58,19.20
2021,07,01,00,59,19.20
2021,07,01,01,00,19.20
2021,07,01,01,01,19.20
2021,07,01,01,02,19.20
2021,07,01,01,03,19.20
2021,07,01,01,04,19.20
2021,07,01,01,05,19.20
2021,07,01,01,06,19.20
2021,07,01,01,07,19.20
2021,07,01,01,08,19.20
2021,07,01,01,09,19.20
2021,07,01,01,10,19.20
2021,07,01,01,11,19.20
2021,07,01,01,12,19.20
2021,07,01,01,13,19.20
2021,07,01,01,14,19.20
2021,07,01,01,15,19.20
2021,07,01,01,16,19.10
2021,07,01,01,17,19.10
2021,07,01,01,18,19.10
2021,07,01,01,19,19.10
2021,07,01,01,20,19.10
2021,07,01,01,21,19.10
2021,07,01,01,22,19.10
2021,07,01,01,23,19.10
2021,07,01,01,24,19.10
2021,07,01,01,25,19.10
2021,07,01,01,26,19.10
2021,07,01,01,27,19.10
2021,07,01,01,28,19.10
2021,07,01,01,29,19.10
2021,07,01,01,30,19.10
2021,07,01,01,31,19.10
2021,07,01,01,32,19.10
2021,07,01,01,33,19.10
2021,07,01,01,34,19.00
2021,07,01,01,35,19.00
2021,07,01,01,36,19.00
2021,07,01,01,37,19.00
2021,07,01,01,38,19.00
2021,07,01,01,39,19.00
2021,07,01,01,40,19.00
2021,07,01,01,41,19.00
2021,07,01,01,42,19.00
2021,07,01,01,43,18.90
2021,07,01,01,44,18.90
2021,07,01,01,45,18.90
2021,07,01,01,46,18.90
2021,07,01,01,47,18.90
2021,07,01,01,48,18.90
2021,07,01,01,49,18.90
2021,07,01,01,50,18.90
2021,07,01,01,51,18.90
2021,07,01,01,52,18.90
2021,07,01,01,53,18.90
2021,07,01,01,54,18.90
2021,07,01,01,55,18.90
2021,07,01,01,56,18.80
2021,07,01,01,57,18.80
2021,07,01,01,58,18.80
2021,07,01,01,59,18.80
2021,07,01,02,00,18.80
2021,07,01,02,01,18.80
2021,07,01,02,02,18.80
2021,07,01,02,03,18.80
2021,07,01,02,04,18.80
2021,07,01,02,05,18.80
2021,07,01,02,06,18.80
2021,07,01,02,07,18.80
2021,07,01,02,08,18.80
2021,07,01,02,09,18.80
2021,07,01,02,10,18.80
2021,07,01,02,11,18.80
2021,07,01,02,12,18.80
2021,07,01,02,13,18.80
2021,07,01,02,14,18.70
2021,07,01,02,15,18.70
2021,07,01,02,16,18.70
2021,07,01,02,17,18.70
2021,07,01,02,18,18.70
2021,07,01,02,19,18.70
2021,07,01,02,20,18.70
2021,07,01,02,21,18.70
2021,07,01,02,22,18.70
2021,07,01,02,23,18.70
2021,07,01,02,24,18.70
2021,07,01,02,25,18.70
2021,07,01,02,26,18.70
2021,07,01,02,27,18.70
2021,07,01,02,28,18.70
2021,07,01,02,29,18.70
2021,07,01,02,30,18.60
2021,07,01,02,31,18.60
2021,07,01,02,32,18.60
2021,07,01,02,33,18.60
2021,07,01,02,34,18.60
2021,07,01,02,35,18.60
2021,07,01,02,36,18.60
2021,07,01,02,37,18.60
2021,07,01,02,38,18.60
2021,07,01,02,39,18.60
2021,07,01,02,40,18.60
2021,07,01,02,41,18.50
2021,07,01,02,42,18.50
2021,07,01,02,43,18.50
2021,07,01,02,44,18.50
2021,07,01,02,45,18.50
2021,07,01,02,46,18.50
2021,07,01,02,47,18.50
2021,07,01,02,48,18.40
2021,07,01,02,49,18.40
2021,07,01,02,50,18.40
2021,07,01,02,51,18.40
2021,07,01,02,52,18.40
2021,07,01,02,53,18.40
2021,07,01,02,54,18.40
2021,07,01,02,55,18.40
2021,07,01,02,56,18.40
2021,07,01,02,57,18.40
2021,07,01,02,58,18.30
2021,07,01,02,59,18.30
2021,07,01,03,00,18.30
2021,07,01,03,01,18.30
2021,07,01,03,02,18.30
2021,07,01,03,03,18.30
2021,07,01,03,04,18.30
2021,07,01,03,05,18.30
2021,07,01,03,06,18.30
2021,07,01,03,07,18.30
2021,07,01,03,08,18.30
2021,07,01,03,09,18.30
2021,07,01,03,10,18.30
2021,07,01,03,11,18.30
2021,07,01,03,12,18.30
2021,07,01,03,13,18.20
2021,07,01,03,14,18.20
2021,07,01,03,15,18.20
2021,07,01,03,16,18.20
2021,07,01,03,17,18.20
2021,07,01,03,18,18.20
2021,07,01,03,19,18.20
2021,07,01,03,20,18.20
2021,07,01,03,21,18.20
2021,07,01,03,22,18.20
2021,07,01,03,23,18.20
2021,07,01,03,24,18.20
2021,07,01,03,25,18.20
2021,07,01,03,26,18.20
2021,07,01,03,27,18.20
2021,07,01,03,28,18.20
2021,07,01,03,29,18.20
2021,07,01,03,30,18.20
2021,07,01,03,31,18.20
2021,07,01,03,32,18.20
2021,07,01,03,33,18.20
2021,07,01,03,34,18.20
2021,07,01,03,35,18.20
2021,07,01,03,36,18.20
2021,07,01,03,37,18.20
2021,07,01,03,38,18.20
2021,07,01,03,39,18.20
2021,07,01,03,40,18.20
2021,07,01,03,41,18.20
2021,07,01,03,42,18.20
2021,07,01,03,43,18.20
2021,07,01,03,44,18.20
2021,07,01,03,45,18.20
2021,07,01,03,46,18.20
2021,07,01,03,47,18.20
2021,07,01,03,48,18.20
2021,07,01,03,49,18.20
2021,07,01,03,50,18.20
2021,07,01,03,51,18.20
2021,07,01,03,52,18.30
2021,07,01,03,53,18.30
2021,07,01,03,54,18.30
2021,07,01,03,55,18.30
2021,07,01,03,56,18.30
2021,07,01,03,57,18.30
2021,07,01,03,58,18.30
2021,07,01,03,59,18.30
2021,07,01,04,00,18.30
2021,07,01,04,01,18.30
2021,07,01,04,02,18.30
2021,07,01,04,03,18.30
2021,07,01,04,04,18.30
2021,07,01,04,05,18.30
2021,07,01,04,06,18.30
2021,07,01,04,07,18.30
2021,07,01,04,08,18.30
2021,07,01,04,09,18.30
2021,07,01,04,10,18.30
2021,07,01,04,11,18.30
2021,07,01,04,12,18.30
2021,07,01,04,13,18.30
2021,07,01,04,14,18.30
2021,07,01,04,15,18.30
2021,07,01,04,16,18.30
2021,07,01,04,17,18.30
2021,07,01,04,18,18.30
2021,07,01,04,19,18.30
2021,07,01,04,20,18.30
2021,07,01,04,21,18.30
2021,07,01,04,22,18.30
2021,07,01,04,23,18.30
2021,07,01,04,24,18.30
2021,07,01,04,25,18.30
2021,07,01,04,26,18.30
2021,07,01,04,27,18.30
2021,07,01,04,28,18.30
2021,07,01,04,29,18.30
2021,07,01,04,30,18.30
2021,07,01,04,31,18.30
2021,07,01,04,32,18.30
2021,07,01,04,33,18.30
2021,07,01,04,34,18.30
2021,07,01,04,35,18.30
2021,07,01,04,36,18.30
2021,07,01,04,37,18.30
2021,07,01,04,38,18.30
2021,07,01,04,39,18.30
2021,07,01,04,40,18.30
2021,07,01,04,41,18.30
2021,07,01,04,42,18.30
2021,07,01,04,43,18.30
2021,07,01,04,44,18.30
2021,07,01,04,45,18.30
2021,07,01,04,46,18.30
2021,07,01,04,47,18.30
2021,07,01,04,48,18.30
2021,07,01,04,49,18.30
2021,07,01,04,50,18.30
2021,07,01,04,51,18.30
2021,07,01,04,52,18.30
2021,07,01,04,53,18.30
2021,07,01,04,54,18.30
2021,07,01,04,55,18.30
2021,07,01,04,56,18.30
2021,07,01,04,57,18.30
2021,07,01,04,58,18.30
2021,07,01,04,59,18.30
2021,07,01,05,00,18.30
2021,07,01,05,01,18.30
2021,07,01,05,02,18.30
2021,07,01,05,03,18.30
2021,07,01,05,04,18.30
2021,07,01,05,05,18.30
2021,07,01,05,06,18.30
2021,07,01,05,07,18.30
2021,07,01,05,08,18.30
2021,07,01,05,09,18.30
2021,07,01,05,10,18.30
2021,07,01,05,11,18.30
2021,07,01,05,12,18.30
2021,07,01,05,13,18.30
2021,07,01,05,14,18.30
2021,07,01,05,15,18.30
2021,07,01,05,16,18.30
2021,07,01,05,17,18.30
2021,07,01,05,18,18.30
2021,07,01,05,19,18.30
2021,07,01,05,20,18.30
2021,07,01,05,21,18.30
2021,07,01,05,22,18.30
2021,07,01,05,23,18.30
2021,07,01,05,24,18.30
2021,07,01,05,25,18.30
2021,07,01,05,26,18.30
2021,07,01,05,27,18.30
2021,07,01,05,28,18.30
2021,07,01,05,29,18.30
2021,07,01,05,30,18.30
2021,07,01,05,31,18.30
2021,07,01,05,32,18.30
2021,07,01,05,33,18.30
2021,07,01,05,34,18.30
2021,07,01,05,35,18.30
2021,07,01,05,36,18.30
2021,07,01,05,37,18.30
2021,07,01,05,38,18.30
2021,07,01,05,39,18.30
2021,07,01,05,40,18.30
2021,07,01,05,41,18.30
2021,07,01,05,42,18.30
2021,07,01,05,43,18.30
2021,07,01,05,44,18.30
2021,07,01,05,45,18.30
2021,07,01,05,46,18.30
2021,07,01,05,47,18.30
2021,07,01,05,48,18.30
2021,07,01,05,49,18.30
2021,07,01,05,50,18.30
2021,07,01,05,51,18.30
2021,07,01,05,52,18.30
2021,07,01,05,53,18.30
2021,07,01,05,54,18.30
2021,07,01,05,55,18.30
2021,07,01,05,56,18.30
2021,07,01,05,57,18.30
2021,07,01,05,58,18.30
2021,07,01,05,59,18.30
2021,07,01,06,00,18.30
2021,07,01,06,01,18.30
2021,07,01,06,02,18.30
2021,07,01,06,03,18.30
2021,07,01,06,04,18.30
2021,07,01,06,05,18.30
2021,07,01,06,06,18.30
2021,07,01,06,07,18.30
2021,07,01,06,08,18.30
2021,07,01,06,09,18.30
2021,07,01,06,10,18.30
2021,07,01,06,11,18.30
2021,07,01,06,12,18.30
2021,07,01,06,13,18.30
2021,07,01,06,14,18.30
2021,07,01,06,15,18.30
2021,07,01,06,16,18.30
2021,07,01,06,17,18.30
2021,07,01,06,18,18.30
2021,07,01,06,19,18.30
2021,07,01,06,20,18.30
2021,07,01,06,21,18.30
2021,07,01,06,22,18.30
2021,07,01,06,23,18.40
2021,07,01,06,24,18.40
2021,07,01,06,25,18.40
2021,07,01,06,26,18.40
2021,07,01,06,27,18.40
2021,07,01,06,28,18.40
2021,07,01,06,29,18.40
2021,07,01,06,30,18.40
2021,07,01,06,31,18.40
2021,07,01,06,32,18.40
2021,07,01,06,33,18.40
2021,07,01,06,34,18.40
2021,07,01,06,35,18.40
2021,07,01,06,36,18.40
2021,07,01,06,37,18.40
2021,07,01,06,38,18.40
2021,07,01,06,39,18.40
2021,07,01,06,40,18.30
2021,07,01,06,41,18.30
2021,07,01,06,42,18.30
2021,07,01,06,43,18.30
2021,07,01,06,44,18.30
2021,07,01,06,45,18.30
2021,07,01,06,46,18.30
2021,07,01,06,47,18.30
2021,07,01,06,48,18.30
2021,07,01,06,49,18.30
2021,07,01,06,50,18.20
2021,07,01,06,51,18.20
2021,07,01,06,52,18.20
2021,07,01,06,53,18.20
2021,07,01,06,54,18.20
2021,07,01,06,55,18.20
2021,07,01,06,56,18.20
2021,07,01,06,57,18.20
2021,07,01,06,58,18.20
2021,07,01,06,59,18.20
2021,07,01,07,00,18.20
2021,07,01,07,01,18.20
2021,07,01,07,02,18.20
2021,07,01,07,03,18.20
2021,07,01,07,04,18.20
2021,07,01,07,05,18.20
2021,07,01,07,06,18.20
2021,07,01,07,07,18.20
2021,07,01,07,08,18.20
2021,07,01,07,09,18.20
2021,07,01,07,10,18.20
2021,07,01,07,11,18.20
2021,07,01,07,12,18.20
2021,07,01,07,13,18.20
2021,07,01,07,14,18.20
2021,07,01,07,15,18.20
2021,07,01,07,16,18.20
2021,07,01,07,17,18.20
2021,07,01,07,18,18.20
2021,07,01,07,19,18.20
2021,07,01,07,20,18.20
2021,07,01,07,21,18.20
2021,07,01,07,22,18.20
2021,07,01,07,23,18.20
2021,07,01,07,24,18.30
2021,07,01,07,25,18.30
2021,07,01,07,26,18.30
2021,07,01,07,27,18.30
2021,07,01,07,28,18.30
2021,07,01,07,29,18.30
2021,07,01,07,30,18.30
2021,07,01,07,31,18.30
2021,07,01,07,32,18.40
2021,07,01,07,33,18.40
2021,07,01,07,34,18.40
2021,07,01,07,35,18.40
2021,07,01,07,36,18.40
2021,07,01,07,37,18.40
2021,07,01,07,38,18.40
2021,07,01,07,39,18.50
2021,07,01,07,40,18.50
2021,07,01,07,41,18.50
2021,07,01,07,42,18.50
2021,07,01,07,43,18.60
2021,07,01,07,44,18.60
2021,07,01,07,45,18.60
2021,07,01,07,46,18.60
2021,07,01,07,47,18.60
2021,07,01,07,48,18.70
2021,07,01,07,49,18.70
2021,07,01,07,50,18.70
2021,07,01,07,51,18.70
2021,07,01,07,52,18.70
2021,07,01,07,53,18.70
2021,07,01,07,54,18.80
2021,07,01,07,55,18.80
2021,07,01,07,56,18.80
2021,07,01,07,57,18.80
2021,07,01,07,58,18.80
2021,07,01,07,59,18.80
2021,07,01,08,00,18.90
2021,07,01,08,01,18.90
2021,07,01,08,02,18.90
2021,07,01,08,03,18.90
2021,07,01,08,04,19.00
2021,07,01,08,05,19.00
2021,07,01,08,06,19.10
2021,07,01,08,07,19.10
2021,07,01,08,08,19.20
2021,07,01,08,09,19.20
2021,07,01,08,10,19.30
2021,07,01,08,11,19.30
2021,07,01,08,12,19.30
2021,07,01,08,13,19.40
2021,07,01,08,14,19.40
2021,07,01,08,15,19.40
2021,07,01,08,16,19.40
2021,07,01,08,17,19.40
2021,07,01,08,18,19.50
2021,07,01,08,19,19.50
2021,07,01,08,20,19.60
2021,07,01,08,21,19.60
2021,07,01,08,22,19.70
2021,07,01,08,23,19.70
2021,07,01,08,24,19.70
2021,07,01,08,25,19.80
2021,07,01,08,26,19.80
2021,07,01,08,27,19.80
2021,07,01,08,28,19.80
2021,07,01,08,29,19.80
2021,07,01,08,30,19.80
2021,07,01,08,31,19.80
2021,07,01,08,32,19.80
2021,07,01,08,33,19.90
2021,07,01,08,34,19.80
2021,07,01,08,35,19.90
2021,07,01,08,36,19.90
2021,07,01,08,37,19.90
2021,07,01,08,38,19.90
2021,07,01,08,39,20.00
2021,07,01,08,40,20.00
2021,07,01,08,41,20.00
2021,07,01,08,42,20.00
2021,07,01,08,43,20.00
2021,07,01,08,44,20.00
2021,07,01,08,45,20.10
2021,07,01,08,46,20.10
2021,07,01,08,47,20.10
2021,07,01,08,48,20.10
2021,07,01,08,49,20.10
2021,07,01,08,50,20.20
2021,07,01,08,51,20.20
2021,07,01,08,52,20.20
2021,07,01,08,53,20.20
2021,07,01,08,54,20.20
2021,07,01,08,55,20.20
2021,07,01,08,56,20.20
2021,07,01,08,57,20.20
2021,07,01,08,58,20.20
2021,07,01,08,59,20.20
2021,07,01,09,00,20.20
2021,07,01,09,01,20.20
2021,07,01,09,02,20.20
2021,07,01,09,03,20.20
2021,07,01,09,04,20.20
2021,07,01,09,05,20.20
2021,07,01,09,06,20.20
2021,07,01,09,07,20.10
2021,07,01,09,08,20.20
2021,07,01,09,09,20.20
2021,07,01,09,10,20.20
2021,07,01,09,11,20.20
2021,07,01,09,12,20.20
2021,07,01,09,13,20.20
2021,07,01,09,14,20.20
2021,07,01,09,15,20.20
2021,07,01,09,16,20.30
2021,07,01,09,17,20.30
2021,07,01,09,18,20.30
2021,07,01,09,19,20.30
2021,07,01,09,20,20.30
2021,07,01,09,21,20.30
2021,07,01,09,22,20.30
2021,07,01,09,23,20.30
2021,07,01,09,24,20.30
2021,07,01,09,25,20.30
2021,07,01,09,26,20.30
2021,07,01,09,27,20.30
2021,07,01,09,28,20.30
2021,07,01,09,29,20.30
2021,07,01,09,30,20.30
2021,07,01,09,31,20.30
2021,07,01,09,32,20.30
2021,07,01,09,33,20.30
2021,07,01,09,34,20.30
2021,07,01,09,35,20.30
2021,07,01,09,36,20.30
2021,07,01,09,37,20.40
2021,07,01,09,38,20.40
2021,07,01,09,39,20.40
2021,07,01,09,40,20.30
2021,07,01,09,41,20.30
2021,07,01,09,42,20.30
2021,07,01,09,43,20.30
2021,07,01,09,44,20.30
2021,07,01,09,45,20.30
2021,07,01,09,46,20.20
2021,07,01,09,47,20.20
2021,07,01,09,48,20.20
2021,07,01,09,49,20.20
2021,07,01,09,50,20.20
2021,07,01,09,51,20.20
2021,07,01,09,52,20.10
2021,07,01,09,53,20.10
2021,07,01,09,54,20.10
2021,07,01,09,55,20.10
2021,07,01,09,56,20.10
2021,07,01,09,57,20.00
2021,07,01,09,58,20.00
2021,07,01,09,59,20.00
2021,07,01,10,00,20.00
2021,07,01,10,01,20.10
2021,07,01,10,02,20.10
2021,07,01,10,03,20.10
2021,07,01,10,04,20.10
2021,07,01,10,05,20.10
2021,07,01,10,06,20.10
2021,07,01,10,07,20.10
2021,07,01,10,08,20.10
2021,07,01,10,09,20.10
2021,07,01,10,10,20.10
2021,07,01,10,11,20.10
2021,07,01,10,12,20.10
2021,07,01,10,13,20.10
2021,07,01,10,14,20.10
2021,07,01,10,15,20.10
2021,07,01,10,16,20.10
2021,07,01,10,17,20.10
2021,07,01,10,18,20.10
2021,07,01,10,19,20.00
2021,07,01,10,20,20.00
2021,07,01,10,21,20.00
2021,07,01,10,22,20.00
2021,07,01,10,23,20.00
2021,07,01,10,24,20.00
2021,07,01,10,25,20.00
2021,07,01,10,26,19.90
2021,07,01,10,27,19.90
2021,07,01,10,28,19.90
2021,07,01,10,29,19.90
2021,07,01,10,30,19.90
2021,07,01,10,31,19.90
2021,07,01,10,32,19.90
2021,07,01,10,33,19.90
2021,07,01,10,34,19.90
2021,07,01,10,35,19.90
2021,07,01,10,36,19.90
2021,07,01,10,37,19.90
2021,07,01,10,38,19.90
2021,07,01,10,39,19.90
2021,07,01,10,40,19.90
2021,07,01,10,41,19.90
2021,07,01,10,42,19.90
2021,07,01,10,43,19.90
2021,07,01,10,44,19.90
2021,07,01,10,45,19.90
2021,07,01,10,46,19.90
2021,07,01,10,47,19.90
2021,07,01,10,48,19.90
2021,07,01,10,49,19.90
2021,07,01,10,50,19.90
2021,07,01,10,51,19.90
2021,07,01,10,52,19.90
2021,07,01,10,53,19.90
2021,07,01,10,54,19.90
2021,07,01,10,55,19.90
2021,07,01,10,56,19.90
2021,07,01,10,57,19.90
2021,07,01,10,58,19.90
2021,07,01,10,59,20.00
2021,07,01,11,00,20.00
2021,07,01,11,01,20.00
2021,07,01,11,02,20.00
2021,07,01,11,03,20.10
2021,07,01,11,04,20.10
2021,07,01,11,05,20.10
2021,07,01,11,06,20.10
2021,07,01,11,07,20.10
2021,07,01,11,08,20.20
2021,07,01,11,09,20.20
2021,07,01,11,10,20.20
2021,07,01,11,11,20.20
2021,07,01,11,12,20.20
2021,07,01,11,13,20.20
2021,07,01,11,14,20.20
2021,07,01,11,15,20.20
2021,07,01,11,16,20.20
2021,07,01,11,17,20.20
2021,07,01,11,18,20.20
2021,07,01,11,19,20.20
2021,07,01,11,20,20.10
2021,07,01,11,21,20.10
2021,07,01,11,22,20.10
2021,07,01,11,23,20.10
2021,07,01,11,24,20.10
2021,07,01,11,25,20.10
2021,07,01,11,26,20.10
2021,07,01,11,27,20.10
2021,07,01,11,28,20.10
2021,07,01,11,29,20.10
2021,07,01,11,30,20.10
2021,07,01,11,31,20.10
2021,07,01,11,32,20.10
2021,07,01,11,33,20.10
2021,07,01,11,34,20.10
2021,07,01,11,35,20.20
2021,07,01,11,36,20.20
2021,07,01,11,37,20.20
2021,07,01,11,38,20.20
2021,07,01,11,39,20.20
2021,07,01,11,40,20.20
2021,07,01,11,41,20.20
2021,07,01,11,42,20.20
2021,07,01,11,43,20.20
2021,07,01,11,44,20.20
2021,07,01,11,45,20.20
2021,07,01,11,46,20.20
2021,07,01,11,47,20.20
2021,07,01,11,48,20.20
2021,07,01,11,49,20.20
2021,07,01,11,50,20.10
2021,07,01,11,51,20.10
2021,07,01,11,52,20.10
2021,07,01,11,53,20.10
2021,07,01,11,54,20.10
2021,07,01,11,55,20.20
2021,07,01,11,56,20.20
2021,07,01,11,57,20.20
2021,07,01,11,58,20.20
2021,07,01,11,59,20.20
2021,07,01,12,00,20.20
2021,07,01,12,01,20.20
2021,07,01,12,02,20.20
2021,07,01,12,03,20.20
2021,07,01,12,04,20.20
2021,07,01,12,05,20.30
2021,07,01,12,06,20.30
2021,07,01,12,07,20.30
2021,07,01,12,08,20.30
2021,07,01,12,09,20.30
2021,07,01,12,10,20.30
2021,07,01,12,11,20.30
2021,07,01,12,12,20.30
2021,07,01,12,13,20.30
2021,07,01,12,14,20.30
2021,07,01,12,15,20.30
2021,07,01,12,16,20.20
2021,07,01,12,17,20.20
2021,07,01,12,18,20.20
2021,07,01,12,19,20.30
2021,07,01,12,20,20.30
2021,07,01,12,21,20.30
2021,07,01,12,22,20.20
2021,07,01,12,23,20.20
2021,07,01,12,24,20.20
2021,07,01,12,25,20.20
2021,07,01,12,26,20.20
2021,07,01,12,27,20.20
2021,07,01,12,28,20.20
2021,07,01,12,29,20.20
2021,07,01,12,30,20.20
2021,07,01,12,31,20.20
2021,07,01,12,32,20.20
2021,07,01,12,33,20.20
2021,07,01,12,34,20.20
2021,07,01,12,35,20.20
2021,07,01,12,36,20.30
2021,07,01,12,37,20.30
2021,07,01,12,38,20.30
2021,07,01,12,39,20.20
2021,07,01,12,40,20.30
2021,07,01,12,41,20.30
2021,07,01,12,42,20.30
2021,07,01,12,43,20.30
2021,07,01,12,44,20.30
2021,07,01,12,45,20.30
2021,07,01,12,46,20.30
2021,07,01,12,47,20.40
2021,07,01,12,48,20.40
2021,07,01,12,49,20.40
2021,07,01,12,50,20.50
2021,07,01,12,51,20.50
2021,07,01,12,52,20.60
2021,07,01,12,53,20.60
2021,07,01,12,54,20.60
2021,07,01,12,55,20.60
2021,07,01,12,56,20.60
2021,07,01,12,57,20.60
2021,07,01,12,58,20.70
2021,07,01,12,59,20.70
2021,07,01,13,00,20.70
2021,07,01,13,01,20.70
2021,07,01,13,02,20.70
2021,07,01,13,03,20.70
2021,07,01,13,04,20.70
2021,07,01,13,05,20.80
2021,07,01,13,06,20.80
2021,07,01,13,07,20.90
2021,07,01,13,08,20.90
2021,07,01,13,09,21.00
2021,07,01,13,10,21.00
2021,07,01,13,11,21.10
2021,07,01,13,12,21.20
2021,07,01,13,13,21.20
2021,07,01,13,14,21.20
2021,07,01,13,15,21.30
2021,07,01,13,16,21.30
2021,07,01,13,17,21.40
2021,07,01,13,18,21.40
2021,07,01,13,19,21.50
2021,07,01,13,20,21.50
2021,07,01,13,21,21.50
2021,07,01,13,22,21.60
2021,07,01,13,23,21.60
2021,07,01,13,24,21.60
2021,07,01,13,25,21.70
2021,07,01,13,26,21.70
2021,07,01,13,27,21.70
2021,07,01,13,28,21.70
2021,07,01,13,29,21.70
2021,07,01,13,30,21.70
2021,07,01,13,31,21.70
2021,07,01,13,32,21.70
2021,07,01,13,33,21.70
2021,07,01,13,34,21.70
2021,07,01,13,35,21.70
2021,07,01,13,36,21.70
2021,07,01,13,37,21.70
2021,07,01,13,38,21.70
2021,07,01,13,39,21.70
2021,07,01,13,40,21.70
2021,07,01,13,41,21.70
2021,07,01,13,42,21.60
2021,07,01,13,43,21.60
2021,07,01,13,44,21.60
2021,07,01,13,45,21.60
2021,07,01,13,46,21.60
2021,07,01,13,47,21.60
2021,07,01,13,48,21.60
2021,07,01,13,49,21.60
2021,07,01,13,50,21.70
2021,07,01,13,51,21.70
2021,07,01,13,52,21.70
2021,07,01,13,53,21.80
2021,07,01,13,54,21.90
2021,07,01,13,55,21.90
2021,07,01,13,56,22.00
2021,07,01,13,57,22.00
2021,07,01,13,58,22.10
2021,07,01,13,59,22.10
2021,07,01,14,00,22.20
2021,07,01,14,01,22.20
2021,07,01,14,02,22.30
2021,07,01,14,03,22.30
2021,07,01,14,04,22.30
2021,07,01,14,05,22.30
2021,07,01,14,06,22.30
2021,07,01,14,07,22.30
2021,07,01,14,08,22.30
2021,07,01,14,09,22.30
2021,07,01,14,10,22.40
2021,07,01,14,11,22.40
2021,07,01,14,12,22.50
2021,07,01,14,13,22.50
2021,07,01,14,14,22.50
2021,07,01,14,15,22.60
2021,07,01,14,16,22.60
2021,07,01,14,17,22.70
2021,07,01,14,18,22.70
2021,07,01,14,19,22.80
2021,07,01,14,20,22.80
2021,07,01,14,21,22.80
2021,07,01,14,22,22.80
2021,07,01,14,23,22.80
2021,07,01,14,24,22.80
2021,07,01,14,25,22.90
2021,07,01,14,26,22.90
2021,07,01,14,27,22.90
2021,07,01,14,28,22.90
2021,07,01,14,29,22.90
2021,07,01,14,30,22.90
2021,07,01,14,31,22.90
2021,07,01,14,32,22.90
2021,07,01,14,33,22.90
2021,07,01,14,34,22.90
2021,07,01,14,35,22.90
2021,07,01,14,36,22.90
2021,07,01,14,37,22.80
2021,07,01,14,38,22.80
2021,07,01,14,39,22.80
2021,07,01,14,40,22.80
2021,07,01,14,41,22.80
2021,07,01,14,42,22.80
2021,07,01,14,43,22.80
2021,07,01,14,44,22.80
2021,07,01,14,45,22.70
2021,07,01,14,46,22.70
2021,07,01,14,47,22.70
2021,07,01,14,48,22.70
2021,07,01,14,49,22.70
2021,07,01,14,50,22.60
2021,07,01,14,51,22.60
2021,07,01,14,52,22.60
2021,07,01,14,53,22.70
2021,07,01,14,54,22.70
2021,07,01,14,55,22.70
2021,07,01,14,56,22.70
2021,07,01,14,57,22.70
2021,07,01,14,58,22.70
2021,07,01,14,59,22.80
2021,07,01,15,00,22.80
2021,07,01,15,01,22.80
2021,07,01,15,02,22.90
2021,07,01,15,03,22.90
2021,07,01,15,04,23.00
2021,07,01,15,05,23.10
2021,07,01,15,06,23.20
2021,07,01,15,07,23.30
2021,07,01,15,08,23.40
2021,07,01,15,09,23.50
2021,07,01,15,10,23.60
2021,07,01,15,11,23.60
2021,07,01,15,12,23.70
2021,07,01,15,13,23.70
2021,07,01,15,14,23.70
2021,07,01,15,15,23.70
2021,07,01,15,16,23.70
2021,07,01,15,17,23.70
2021,07,01,15,18,23.70
2021,07,01,15,19,23.70
2021,07,01,15,20,23.70
2021,07,01,15,21,23.70
2021,07,01,15,22,23.70
2021,07,01,15,23,23.70
2021,07,01,15,24,23.60
2021,07,01,15,25,23.60
2021,07,01,15,26,23.50
2021,07,01,15,27,23.50
2021,07,01,15,28,23.40
2021,07,01,15,29,23.40
2021,07,01,15,30,23.40
2021,07,01,15,31,23.40
2021,07,01,15,32,23.40
2021,07,01,15,33,23.40
2021,07,01,15,34,23.40
2021,07,01,15,35,23.50
2021,07,01,15,36,23.50
2021,07,01,15,37,23.60
2021,07,01,15,38,23.60
2021,07,01,15,39,23.70
2021,07,01,15,40,23.70
2021,07,01,15,41,23.80
2021,07,01,15,42,23.80
2021,07,01,15,43,23.90
2021,07,01,15,44,23.90
2021,07,01,15,45,23.90
2021,07,01,15,46,24.00
2021,07,01,15,47,24.10
2021,07,01,15,48,24.10
2021,07,01,15,49,24.10
2021,07,01,15,50,24.10
2021,07,01,15,51,24.00
2021,07,01,15,52,24.00
2021,07,01,15,53,23.90
2021,07,01,15,54,23.90
2021,07,01,15,55,23.80
2021,07,01,15,56,23.80
2021,07,01,15,57,23.70
2021,07,01,15,58,23.70
2021,07,01,15,59,23.70
2021,07,01,16,00,23.70
2021,07,01,16,01,23.70
2021,07,01,16,02,23.80
2021,07,01,16,03,23.80
2021,07,01,16,04,23.80
2021,07,01,16,05,23.80
2021,07,01,16,06,23.70
2021,07,01,16,07,23.70
2021,07,01,16,08,23.60
2021,07,01,16,09,23.60
2021,07,01,16,10,23.60
2021,07,01,16,11,23.60
2021,07,01,16,12,23.60
2021,07,01,16,13,23.50
2021,07,01,16,14,23.50
2021,07,01,16,15,23.40
2021,07,01,16,16,23.40
2021,07,01,16,17,23.30
2021,07,01,16,18,23.30
2021,07,01,16,19,23.30
2021,07,01,16,20,23.30
2021,07,01,16,21,23.30
2021,07,01,16,22,23.30
2021,07,01,16,23,23.30
2021,07,01,16,24,23.20
2021,07,01,16,25,23.20
2021,07,01,16,26,23.10
2021,07,01,16,27,23.10
2021,07,01,16,28,23.00
2021,07,01,16,29,23.00
2021,07,01,16,30,23.00
2021,07,01,16,31,23.00
2021,07,01,16,32,22.90
2021,07,01,16,33,22.90
2021,07,01,16,34,22.80
2021,07,01,16,35,22.80
2021,07,01,16,36,22.80
2021,07,01,16,37,22.80
2021,07,01,16,38,22.70
2021,07,01,16,39,22.70
2021,07,01,16,40,22.70
2021,07,01,16,41,22.70
2021,07,01,16,42,22.70
2021,07,01,16,43,22.70
2021,07,01,16,44,22.70
2021,07,01,16,45,22.70
2021,07,01,16,46,22.70
2021,07,01,16,47,22.60
2021,07,01,16,48,22.60
2021,07,01,16,49,22.50
2021,07,01,16,50,22.50
2021,07,01,16,51,22.50
2021,07,01,16,52,22.40
2021,07,01,16,53,22.50
2021,07,01,16,54,22.50
2021,07,01,16,55,22.50
2021,07,01,16,56,22.50
2021,07,01,16,57,22.50
2021,07,01,16,58,22.50
2021,07,01,16,59,22.60
2021,07,01,17,00,22.60
2021,07,01,17,01,22.50
2021,07,01,17,02,22.50
2021,07,01,17,03,22.50
2021,07,01,17,04,22.40
2021,07,01,17,05,22.40
2021,07,01,17,06,22.40
2021,07,01,17,07,22.30
2021,07,01,17,08,22.30
2021,07,01,17,09,22.30
2021,07,01,17,10,22.30
2021,07,01,17,11,22.30
2021,07,01,17,12,22.30
2021,07,01,17,13,22.30
2021,07,01,17,14,22.30
2021,07,01,17,15,22.20
2021,07,01,17,16,22.20
2021,07,01,17,17,22.20
2021,07,01,17,18,22.20
2021,07,01,17,19,22.20